Regional Weather Roundup
Issued by NWS

Home | Current Version | Previous Version | Text Only | Print | Product List | Glossary Off
Versions: 1 2 3 4 5 6 7 8 9 10 11 12 13 14 15 16 17 18 19 20 21 22 23 24 25 26 27 28 29 30 31 32 33 34 35 36 37 38 39 40 41 42 43 44 45 46 47 48 49 50

000
ASUS43 KTOP 211308
RWRKS

WEATHER ROUNDUP FOR KANSAS
NATIONAL WEATHER SERVICE GOODLAND KS
700 AM CST SUN DEC 21 2014

NOTE:  "FAIR" INDICATES FEW OR NO CLOUDS BELOW 12,000 FEET WITH NO
SIGNIFICANT WEATHER AND/OR OBSTRUCTIONS TO VISIBILITY.

KSZ001>006-013>018-027>032-041>047-211400-
NORTHWEST KANSAS

CITY           SKY/WX    TMP DP  RH WIND       PRES   REMARKS
GOODLAND       CLEAR     28  25  88 SW6       29.79F
HAYS           CLOUDY    36  28  75 S9        29.88F
HILL CITY      CLOUDY    33  30  88 S7        29.84F
RUSSELL        CLOUDY    37  37 100 S13       29.89F FOG     WCI  29
$$

KSZ061>065-074>080-084>089-211400-
SOUTHWEST KANSAS

CITY           SKY/WX    TMP DP  RH WIND       PRES   REMARKS
DODGE CITY     CLOUDY    38  37  97 S13       29.87F FOG     WCI  30
ELKHART          N/A    N/A N/A N/A MISG        N/A
GARDEN CITY    CLOUDY    34  34 100 S13       29.85S WCI  25
GREAT BEND     CLOUDY    39  36  87 S10       29.93S WCI  32
LIBERAL        CLOUDY    37  34  87 S6        29.87S
PRATT          CLOUDY    37  37 100 S9        29.94F FOG
$$

KSZ066>073-081>083-090>101-211400-
SOUTHEAST KANSAS

CITY           SKY/WX    TMP DP  RH WIND       PRES   REMARKS
CHANUTE        CLOUDY    40  38  93 S7        30.06R
COFFEYVILLE    CLOUDY    41  39  93 S8        30.08R
HUTCHINSON     CLOUDY    40  38  93 S13       29.97F FOG     WCI  32
MEDICINE LODGE   N/A     39  38  96 SE8       29.95F
NEWTON         CLOUDY    39  34  81 S12       30.00S WCI  32
PARSONS        CLOUDY    41  39  93 S6        30.08R
WICHITA INTL   CLOUDY    41  37  86 S13       30.00S
WICHITA JABRA  CLOUDY    40  37  89 S10       30.00R WCI  33
WICHITA MCCONL CLOUDY    40  37  89 S15       30.01R WCI  32
WINFIELD       CLOUDY    41  38  89 S10       30.03S
$$

KSZ007>012-019>026-033>040-048>060-102>105-211400-
NORTHEAST KANSAS

CITY           SKY/WX    TMP DP  RH WIND       PRES   REMARKS
CONCORDIA      FOG       36  36 100 SW13      29.92F VSB 1   WCI  27
EMPORIA        CLOUDY    38  37  97 S10       30.01F FOG     WCI  31
LAWRENCE       CLOUDY    38  35  89 S8        30.04F
MANHATTAN      CLOUDY    42  37  82 S13G21    29.97S
MARYSVILLE     CLOUDY    37  36  93 S13       29.94S WCI  29
OLATHE IND     CLOUDY    37  36  96 S7        30.05F FOG
OLATHE EXE     CLOUDY    37  37 100 S7        30.04F FOG
SALINA         CLOUDY    40  37  89 S15       29.96F WCI  32
TOPEKA BILLARD CLOUDY   N/A N/A N/A S9        30.02F
TOPEKA FORBES  CLOUDY    40  36  86 S9        30.01F
$$



USA.gov is the U.S. government's official web portal to all federal, state and local government web resources and services.